Cross City, FL

11:40 PM EDT on October 20, 2019 (GMT -0400)
Cross City

Weather History for KCTY - July, 2019

Change the Weather History Date:

Thursday, July 18, 2019

  Actual Average Record
Temperature  
Mean Temperature 81 °F 82 °F  
Max Temperature 90 °F 91 °F 97 °F (2002)
Min Temperature 71 °F 72 °F 69 °F (2014)
Degree Days  
Heating Degree Days 0    
Month to date heating degree days 0  
Since 1 June heating degree days 0  
Since 1 July heating degree days 0  
Cooling Degree Days 16    
Month to date cooling degree days 331  
Year to date cooling degree days 1507  
Since 1 June cooling degree days 823  
Growing Degree Days 30 (Base 50)    
Moisture  
Dew Point 75 °F    
Average Humidity 87    
Maximum Humidity 99    
Minimum Humidity 67    
Precipitation  
Precipitation 0.46 in 0.18 in 1.87 in (2004)
Month to date precipitation 3.05 3.08  
Year to date precipitation 31.70 25.34  
Sea Level Pressure  
Sea Level Pressure 30.09 in    
Wind  
Wind Speed 3 mph (SW)    
Max Wind Speed 14 mph    
Max Gust Speed 25 mph    
Visibility 10 miles    
Events Rain , Thunderstorm    
T = Trace of Precipitation, MM = Missing Value Source: NWS Daily Summary

Daily Weather History Graph

Daily Weather History Graph

Search for Another Location

Airport or City:

Astronomy

Jul. 18, 2019 Rise Set
Actual Time 6:43 AM EDT 8:33 PM EDT
Civil Twilight 6:17 AM EDT 8:59 PM EDT
Nautical Twilight 5:45 AM EDT 9:31 PM EDT
Astronomical Twilight 5:11 AM EDT 10:05 PM EDT
Moon 10:03 PM EDT (7/18) 8:09 AM EDT (7/18)
Length of Visible Light 14h 42m
Length of Day
13h 49m
Full, 97% of the Moon is Illuminated
Jul 18
Full
Jul 24
Last Quarter
Jul 31
New
Aug 7
First Quarter
Aug 15
Full

Hourly Weather History & Observations

Time (EDT) Temp. Heat Index Dew Point Humidity Pressure Visibility Wind Dir Wind Speed Gust Speed Precip Events Conditions
12:15 AM 72.1 °F - 71.1 °F 96% 30.11 in 10.0 mi SE 3.5 mph - N/A   Clear
12:35 AM 72.1 °F - 70.9 °F 96% 30.10 in 10.0 mi SSE 3.5 mph - N/A   Clear
12:55 AM 72.0 °F - 70.7 °F 96% 30.10 in 10.0 mi Calm Calm - N/A   Clear
1:15 AM 72.0 °F - 70.9 °F 96% 30.10 in 10.0 mi Calm Calm - N/A   Clear
1:35 AM 71.6 °F - 70.7 °F 97% 30.10 in 10.0 mi North 3.5 mph - N/A   Clear
1:55 AM 71.1 °F - 70.5 °F 98% 30.10 in 10.0 mi Calm Calm - N/A   Clear
2:15 AM 71.2 °F - 70.5 °F 98% 30.09 in 10.0 mi NNE 3.5 mph - N/A   Clear
2:35 AM 71.1 °F - 70.5 °F 98% 30.08 in 10.0 mi Calm Calm - N/A   Clear
2:55 AM 71.6 °F - 71.1 °F 98% 30.08 in 10.0 mi Calm Calm - N/A   Clear
3:15 AM 71.1 °F - 70.7 °F 99% 30.08 in 10.0 mi Calm Calm - N/A   Clear
3:35 AM 70.7 °F - 70.2 °F 98% 30.07 in 10.0 mi North 3.5 mph - N/A   Clear
3:55 AM 71.1 °F - 70.5 °F 98% 30.07 in 10.0 mi Calm Calm - N/A   Clear
4:15 AM 71.2 °F - 70.7 °F 98% 30.07 in 10.0 mi Calm Calm - N/A   Clear
4:35 AM 71.2 °F - 70.9 °F 99% 30.07 in 10.0 mi Calm Calm - N/A   Clear
4:55 AM 71.2 °F - 70.9 °F 99% 30.07 in 10.0 mi Calm Calm - N/A   Clear
5:15 AM 71.1 °F - 70.5 °F 98% 30.07 in 10.0 mi Calm Calm - N/A   Clear
5:35 AM 71.1 °F - 70.5 °F 98% 30.08 in 10.0 mi Calm Calm - N/A   Clear
5:55 AM 70.7 °F - 70.3 °F 99% 30.08 in 10.0 mi Calm Calm - N/A   Clear
6:15 AM 70.9 °F - 70.5 °F 99% 30.08 in 10.0 mi Calm Calm - N/A   Clear
6:35 AM 71.1 °F - 70.5 °F 98% 30.09 in 10.0 mi Calm Calm - N/A   Clear
6:55 AM 70.7 °F - 70.3 °F 99% 30.10 in 7.0 mi Calm Calm - N/A   Clear
7:35 AM 72.1 °F - 71.8 °F 99% 30.10 in 10.0 mi Calm Calm - N/A   Clear
7:55 AM 73.4 °F - 72.3 °F 96% 30.11 in 10.0 mi SE 3.5 mph - N/A   Clear
8:15 AM 75.0 °F - 73.2 °F 94% 30.11 in 10.0 mi SSE 3.5 mph - N/A   Clear
8:35 AM 76.1 °F - 74.1 °F 94% 30.11 in 10.0 mi Calm Calm - N/A   Clear
8:55 AM 77.9 °F - 75.7 °F 93% 30.11 in 10.0 mi SSE 3.5 mph - N/A   Clear
9:15 AM 79.5 °F - 77.0 °F 92% 30.12 in 10.0 mi SSE 4.6 mph - N/A   Clear
9:35 AM 81.7 °F 90.2 °F 78.1 °F 89% 30.11 in 10.0 mi Calm Calm - N/A   Clear
9:55 AM 83.8 °F 96.3 °F 79.7 °F 87% 30.11 in 10.0 mi South 3.5 mph - N/A   Clear
10:15 AM 85.5 °F 100.1 °F 80.2 °F 84% 30.11 in 10.0 mi SE 3.5 mph - N/A   Scattered Clouds
10:35 AM 85.5 °F 99.1 °F 79.3 °F 82% 30.10 in 10.0 mi SSE 3.5 mph - N/A   Scattered Clouds
10:55 AM 87.3 °F 101.5 °F 78.8 °F 76% 30.10 in 10.0 mi SSW 5.8 mph - N/A   Mostly Cloudy
11:15 AM 87.6 °F 100.8 °F 77.9 °F 73% 30.10 in 10.0 mi South 4.6 mph - N/A   Mostly Cloudy
11:35 AM 88.0 °F 100.7 °F 77.5 °F 71% 30.10 in 10.0 mi SW 3.5 mph - N/A Thunderstorm Scattered Clouds
11:55 AM 88.0 °F 98.5 °F 75.9 °F 67% 30.10 in 10.0 mi Calm Calm - N/A Thunderstorm Scattered Clouds
12:15 PM 89.2 °F 101.8 °F 77.0 °F 67% 30.10 in 10.0 mi SW 6.9 mph - N/A Thunderstorm Mostly Cloudy
12:35 PM 82.6 °F 88.6 °F 73.6 °F 74% 30.12 in 10.0 mi West 11.5 mph 25.3 mph N/A Thunderstorm Thunderstorm
12:55 PM 80.2 °F 85.0 °F 74.3 °F 82% 30.13 in 4.0 mi West 13.8 mph 19.6 mph 0.15 in   Overcast
1:15 PM 75.4 °F - 73.2 °F 93% 30.12 in 7.0 mi West 12.7 mph - 0.25 in Rain , Thunderstorm Heavy Thunderstorms and Rain
1:35 PM 76.1 °F - 72.9 °F 90% 30.13 in 10.0 mi WSW 8.1 mph - 0.28 in Rain , Thunderstorm Rain
1:55 PM 78.8 °F - 73.4 °F 83% 30.12 in 10.0 mi SSW 8.1 mph - 0.28 in Thunderstorm Thunderstorm
2:15 PM 79.7 °F - 73.9 °F 82% 30.11 in 10.0 mi South 8.1 mph - N/A   Clear
2:35 PM 82.6 °F 89.7 °F 75.2 °F 78% 30.10 in 10.0 mi SSW 3.5 mph - N/A   Clear
2:55 PM 84.2 °F 92.6 °F 75.6 °F 75% 30.10 in 10.0 mi SSW 4.6 mph - N/A   Clear
3:00 PM 85.1 °F 94.9 °F 76.5 °F 75% 30.09 in 10.0 mi SW 4.6 mph - N/A   Clear
3:15 PM 86.2 °F 97.8 °F 77.5 °F 75% 30.09 in 10.0 mi SSW 3.5 mph - N/A   Clear
3:55 PM 88.3 °F 102.3 °F 78.4 °F 72% 30.07 in - SW 8.1 mph - N/A   Mostly Cloudy
4:15 PM 88.3 °F 101.1 °F 77.5 °F 70% 30.06 in 10.0 mi WSW 9.2 mph - N/A   Scattered Clouds
4:35 PM 88.0 °F 100.7 °F 77.4 °F 71% 30.06 in 10.0 mi West 8.1 mph - N/A   Scattered Clouds
4:55 PM 87.3 °F 99.3 °F 77.4 °F 72% 30.05 in 10.0 mi WSW 8.1 mph - N/A   Scattered Clouds
5:15 PM 87.3 °F 99.8 °F 77.5 °F 73% 30.05 in 10.0 mi WSW 5.8 mph - N/A   Scattered Clouds
5:35 PM 88.0 °F 100.7 °F 77.7 °F 71% 30.05 in 10.0 mi West 9.2 mph - N/A   Scattered Clouds
5:55 PM 88.2 °F 101.8 °F 78.1 °F 72% 30.05 in 10.0 mi West 6.9 mph - N/A   Clear
6:15 PM 88.7 °F 101.6 °F 77.2 °F 69% 30.05 in 10.0 mi SW 6.9 mph - N/A   Clear
6:35 PM 88.5 °F 100.5 °F 76.8 °F 68% 30.05 in 10.0 mi WSW 6.9 mph - N/A   Clear
6:55 PM 88.0 °F 99.1 °F 76.3 °F 68% 30.04 in 10.0 mi WSW 5.8 mph - N/A   Clear
7:15 PM 86.9 °F 98.8 °F 77.4 °F 73% 30.05 in 10.0 mi West 8.1 mph - N/A   Scattered Clouds
7:35 PM 85.5 °F 97.2 °F 77.7 °F 78% 30.06 in 10.0 mi WSW 6.9 mph - N/A   Scattered Clouds
7:55 PM 84.7 °F 95.6 °F 77.7 °F 79% 30.07 in 10.0 mi West 5.8 mph - N/A   Clear
8:15 PM 83.7 °F 93.8 °F 77.5 °F 82% 30.06 in 10.0 mi West 5.8 mph - N/A   Clear
8:35 PM 82.9 °F 92.4 °F 77.7 °F 84% 30.07 in 10.0 mi West 5.8 mph - N/A   Clear
8:55 PM 81.9 °F 90.5 °F 77.9 °F 88% 30.07 in 10.0 mi West 3.5 mph - N/A   Clear
9:15 PM 81.3 °F 89.2 °F 77.7 °F 89% 30.07 in 10.0 mi WNW 3.5 mph - N/A   Clear
9:35 PM 79.7 °F - 77.4 °F 93% 30.07 in 10.0 mi Calm Calm - N/A   Clear
9:55 PM 79.5 °F - 77.7 °F 94% 30.08 in 10.0 mi Calm Calm - N/A   Clear
10:15 PM 79.3 °F - 77.7 °F 95% 30.08 in 10.0 mi Calm Calm - N/A   Clear
10:35 PM 79.0 °F - 77.4 °F 95% 30.09 in 10.0 mi Calm Calm - N/A   Clear
10:55 PM 79.0 °F - 77.4 °F 95% 30.08 in 10.0 mi Calm Calm - N/A   Clear
11:15 PM 78.6 °F - 77.2 °F 95% 30.08 in 10.0 mi Calm Calm - N/A   Clear
11:35 PM 78.3 °F - 77.2 °F 96% 30.08 in 10.0 mi Calm Calm - N/A   Clear
11:55 PM 77.9 °F - 76.6 °F 96% 30.08 in 10.0 mi Calm Calm - N/A   Clear